User: anonymous   Login
Location: Unspecified
(0.0000°N, 0.0000°E)
Time: 22:25:52
(UTC+00:00)
Language:

STARLINK-31080 - Orbit

View from above orbital plane
View from above orbital plane
View from above satellite
View from above satellite

Ground track
Ground track

The orbit is defined by the following mean orbital elements,

1 58603U          26145.26243742 +.00000000 +00000-0 +51468-4 0 00001
2 58603  43.0046  96.2298 0001259 262.6216  97.4492 15.27577466    04
Epoch (UTC): 25 May 2026 06:17:54
Eccentricity: 0.0001259
inclination: 43.0046°
perigee height: 482 km
apogee height: 484 km
right ascension of ascending node: 96.2298°
argument of perigee: 262.6216°
revolutions per day: 15.27577466
mean anomaly at epoch: 97.4492°

The dashed part of the orbit path shows where the satellite is in the earth's shadow,  

DLR